Change the Weather History Date:

Monday, May 5, 2014

  Actual Average Record
Temperature  
Mean Temperature 60 °F -  
Max Temperature 75 °F 76 °F 82 °F (2003)
Min Temperature 46 °F 52 °F 44 °F (2002)
Degree Days  
Heating Degree Days 4    
Growing Degree Days 10 (Base 50)    
Moisture  
Dew Point 52 °F    
Average Humidity 74    
Maximum Humidity 100    
Minimum Humidity 33    
Precipitation  
Precipitation 0.00 in 0.03 in - ()
Sea Level Pressure  
Sea Level Pressure 30.00 in    
Wind  
Wind Speed 5 mph ()    
Max Wind Speed 18 mph    
Max Gust Speed -    
Visibility 6.7 miles    
Events      
Averages and records for this station are not official NWS values.
T = Trace of Precipitation, MM = Missing Value Source: Averaged Metar Reports

Daily Weather History Graph

Daily Weather History Graph

Search for Another Location

Airport or City:

Trip Planner

Search our weather history database for the weather conditions in past years. The results will help you decide how hot, cold, wet, or windy it might be!

Date:

Astronomy

May. 05, 2014 Rise Set
Actual Time 6:21 AM CEST 8:21 PM CEST
Civil Twilight 5:51 AM CEST 8:50 PM CEST
Nautical Twilight 5:15 AM CEST 9:26 PM CEST
Astronomical Twilight 4:37 AM CEST 10:05 PM CEST
Moon 11:25 AM CEST (5/5) 12:55 AM CEST (5/5)
Length of Visible Light 14h 58m
Length of Day
14h 00m
Waxing Crescent, 34% of the Moon is Illuminated
May 5
Waxing Crescent
May 7
First Quarter
May 14
Full
May 21
Last Quarter
May 28
New

Hourly Weather History & Observations

Time (CEST) Temp. Dew Point Humidity Pressure Visibility Wind Dir Wind Speed Gust Speed Precip Events Conditions
12:55 AM 53.6 °F 51.8 °F 94% 29.95 in 6.2 mi Calm Calm - N/A   Mostly Cloudy
1:55 AM 55.4 °F 51.8 °F 88% 29.95 in 6.2 mi NNW 2.3 mph - N/A   Mostly Cloudy
2:00 AM 55 °F 52 °F 88% 29.96 in 7 mi NNW 2.3 mph - -   Mostly Cloudy
2:55 AM 53.6 °F 51.8 °F 94% 29.95 in 6.2 mi WNW 4.6 mph - N/A   Partly Cloudy
3:55 AM 51.8 °F 50.0 °F 94% 29.95 in 6.2 mi NE 2.3 mph - N/A   Partly Cloudy
4:55 AM 50.0 °F 46.4 °F 87% 29.95 in 6.2 mi North 3.5 mph - N/A   Partly Cloudy
5:00 AM 50 °F 47 °F 85% 29.96 in 7 mi North 3.5 mph - -   Scattered Clouds
5:55 AM 48.2 °F 46.4 °F 93% 29.95 in 4.3 mi NE 4.6 mph - N/A   Scattered Clouds
6:55 AM 48.2 °F 44.6 °F 87% 29.98 in 6.2 mi NW 3.5 mph - N/A   Scattered Clouds
7:55 AM 50.0 °F 46.4 °F 87% 29.98 in 5.0 mi NNW 2.3 mph - N/A   Mostly Cloudy
8:00 AM 50 °F 47 °F 87% 30.00 in 5 mi NNW 2.3 mph - -   Mist
8:55 AM 57.2 °F 53.6 °F 88% 30.01 in 5.0 mi NNW 2.3 mph - N/A   Partly Cloudy
9:55 AM 60.8 °F 55.4 °F 82% 30.01 in 6.2 mi North 5.8 mph - N/A   Scattered Clouds
10:55 AM 64.4 °F 53.6 °F 68% 30.01 in 6.2 mi NNE 3.5 mph - N/A   Partly Cloudy
11:00 AM 65 °F 54 °F 60% 30.01 in 11 mi NNE 3.5 mph - -   Scattered Clouds
11:55 AM 68.0 °F 50.0 °F 52% 30.01 in 6.2 mi WSW 2.3 mph - N/A   Partly Cloudy
12:55 PM 68.0 °F 48.2 °F 49% 29.98 in 6.2 mi SW 4.6 mph - N/A   Scattered Clouds
1:55 PM 73.4 °F 50.0 °F 44% 29.98 in 6.2 mi South 10.4 mph - N/A   Scattered Clouds
2:00 PM 74 °F 51 °F 33% 30.00 in 12 mi South 10.4 mph - -   Partly Cloudy
2:55 PM 73.4 °F 51.8 °F 47% 29.98 in 6.2 mi SE 13.8 mph - N/A   Scattered Clouds
3:55 PM 69.8 °F 55.4 °F 60% 29.98 in 6.2 mi SE 17.3 mph - N/A   Scattered Clouds
4:55 PM 68.0 °F 53.6 °F 60% 29.98 in 6.2 mi SSE 17.3 mph - N/A   Partly Cloudy
5:00 PM 69 °F 54 °F 48% 30.00 in 12 mi SSE 17.3 mph - -   Partly Cloudy
5:55 PM 68.0 °F 55.4 °F 64% 30.01 in 6.2 mi SSE 18.4 mph - N/A   Partly Cloudy
6:55 PM 64.4 °F 53.6 °F 68% 30.01 in 6.2 mi SSE 13.8 mph - N/A   Scattered Clouds
7:55 PM 64.4 °F 53.6 °F 68% 30.04 in 6.2 mi SSE 9.2 mph - N/A   Mostly Cloudy
8:00 PM 64 °F 54 °F 60% 30.04 in 9 mi SSE 9.2 mph - -   Mostly Cloudy
8:55 PM 60.8 °F 55.4 °F 82% 30.04 in 6.2 mi SE 9.2 mph - N/A   Scattered Clouds
10:55 PM 55.4 °F 53.6 °F 94% 30.06 in 6.2 mi SE 2.3 mph - N/A   Partly Cloudy
11:00 PM 55 °F 53 °F 92% 30.07 in 7 mi SE 2.3 mph - -   Scattered Clouds
11:55 PM 53.6 °F 53.6 °F 100% 30.06 in - South 2.3 mph - N/A   Clear